DW8787 Weather Reports


Display with metric or nautical units.
time (UTC)temp
F
wind
direction
speed
MPH
gust
MPH
rain 1hr
in
rain 24hr
in
rain mn
in
humidity
%
barometer
mb
20260505070030 50 314 0.0 0.0 0.00 0.00 0.00 96 1013.1
20260505064526 49 314 0.0 0.0 0.00 0.00 0.00 96 1013.2
20260505063036 48 314 0.0 0.0 0.00 0.00 0.00 94 1013.0
20260505061532 49 314 0.0 0.0 0.00 0.00 0.00 94 1012.9
20260505060025 49 314 0.0 0.0 0.00 0.00 0.00 93 1012.9
20260505054529 50 314 0.0 0.0 0.00 0.00 0.00 92 1012.6
20260505053021 51 314 0.0 0.0 0.00 0.00 0.00 92 1012.7
20260505051533 51 314 0.0 1.0 0.00 0.00 0.00 91 1012.6
20260505041522 55 283 0.0 2.0 0.00 0.00 0.00 84 1012.0
20260505040015 56 290 0.0 4.0 0.00 0.00 0.00 83 1011.9
20260505034513 58 265 1.0 3.0 0.00 0.00 0.00 81 1011.8
20260505033014 59 273 0.0 5.0 0.00 0.00 0.00 78 1011.5
20260505031523 61 293 1.0 5.0 0.00 0.00 0.00 76 1011.2
20260505030011 62 238 1.0 6.0 0.00 0.00 0.00 73 1011.1
20260505024510 64 285 1.0 4.0 0.00 0.00 0.00 69 1010.8
20260505023010 65 319 0.0 3.0 0.00 0.00 0.00 66 1010.8
20260505021508 67 219 0.0 6.0 0.00 0.00 0.00 62 1010.7
20260505020009 69 290 1.0 8.0 0.00 0.00 0.00 57 1010.7
20260505014514 70 119 1.0 8.0 0.00 0.00 0.00 55 1010.5
20260505013007 71 290 2.0 11.0 0.00 0.00 0.00 51 1010.6
20260505011512 73 293 0.0 8.0 0.00 0.00 0.00 52 1010.7
20260505010014 73 269 2.0 10.0 0.00 0.00 0.00 49 1010.6
20260505004506 74 164 2.0 9.0 0.00 0.00 0.00 46 1010.5
20260505003006 75 239 3.0 10.0 0.00 0.00 0.00 46 1010.4
20260505001505 76 285 2.0 6.0 0.00 0.00 0.00 45 1010.4
20260505000005 77 252 2.0 8.0 0.00 0.00 0.00 49 1010.4
20260504234505 76 260 2.0 8.0 0.00 0.00 0.00 48 1010.2
20260504233002 77 290 4.0 8.0 0.00 0.00 0.00 47 1010.2
20260504231502 77 217 3.0 8.0 0.00 0.00 0.00 48 1010.3
20260504230001 78 293 1.0 8.0 0.00 0.00 0.00 51 1010.4
20260504224503 78 267 2.0 8.0 0.00 0.00 0.00 53 1010.3
20260504223110 79 259 1.0 9.0 0.00 0.00 0.00 50 1010.3
20260504221558 78 297 0.0 6.0 0.00 0.00 0.00 48 1010.6
20260504220100 78 50 3.0 8.0 0.00 0.00 0.00 46 1010.8
20260504214554 77 297 1.0 7.0 0.00 0.00 0.00 50 1010.9
20260504213058 76 290 2.0 9.0 0.00 0.00 0.00 52 1011.0
20260504211557 77 250 3.0 7.0 0.00 0.00 0.00 54 1011.1
20260504210059 75 188 1.0 11.0 0.00 0.00 0.00 57 1011.2
20260504204549 75 290 4.0 8.0 0.00 0.00 0.00 59 1011.2
20260504203047 75 279 3.0 6.0 0.00 0.00 0.00 59 1011.3
20260504201546 73 122 2.0 6.0 0.00 0.00 0.00 60 1011.4
20260504200049 73 320 1.0 4.0 0.00 0.00 0.00 60 1011.5
20260504194536 73 325 1.0 6.0 0.00 0.00 0.00 58 1011.7
20260504193033 72 294 3.0 7.0 0.00 0.00 0.00 60 1011.8
20260504191530 71 113 2.0 6.0 0.00 0.00 0.00 62 1011.9
20260504190028 70 119 4.0 8.0 0.00 0.00 0.00 62 1011.9
20260504184533 69 330 1.0 7.0 0.00 0.00 0.00 64 1012.1
20260504183032 68 75 2.0 6.0 0.00 0.00 0.00 64 1012.0
20260504181521 68 1 2.0 7.0 0.00 0.00 0.00 66 1012.0
20260504180022 68 339 0.0 3.0 0.00 0.00 0.00 67 1012.1
20260504174517 66 18 2.0 7.0 0.00 0.00 0.00 70 1012.1
20260504173014 66 307 1.0 4.0 0.00 0.00 0.00 70 1012.0
20260504171511 65 329 1.0 5.0 0.00 0.00 0.00 72 1012.0
20260504160104 61 49 0.0 3.0 0.00 0.00 0.00 79 1011.7
20260504081603 53 321 0.0 0.0 0.00 0.00 0.00 88 1009.3